Regional Weather Roundup
Issued by NWS Green Bay, WI

Home | Current Version | Previous Version | Graphics & Text | Print | Product List | Glossary Off
Versions: 1 2 3 4 5 6 7 8 9 10 11 12 13 14 15 16 17 18 19 20 21 22 23 24 25 26 27 28 29 30 31 32 33 34 35 36 37 38 39 40 41 42 43 44 45 46 47 48 49 50

000
ASUS43 KGRB 010000
RWRGRB

NORTH-CENTRAL AND NORTHEAST WISCONSIN REGIONAL WEATHER ROUNDUP
NATIONAL WEATHER SERVICE GREEN BAY WI
700 PM CDT WED AUG 31 2016

WIZ005-009-010>012-018-019-010100-
NORTH CENTRAL WISCONSIN

CITY           SKY/WX    TMP DP  RH WIND       PRES   REMARKS
IRONWOOD       CLOUDY    64  55  72 N5        30.19F
MANITOWISH WTR NOT AVBL
ARBOR VITAE    NOT AVBL
EAGLE RIVER    NOT AVBL
LAND O LAKES   NOT AVBL
RHINELANDER    MOCLDY    65  53  65 N6        30.18S
PHILLIPS       MOCLDY    65  53  65 N7        30.18R
ANTIGO         NOT AVBL
TOMAHAWK       NOT AVBL
MERRILL        CLEAR     67  53  59 N8        30.17S
$$

WIZ013-073-010100-
NORTHEAST WISCONSIN

CITY           SKY/WX    TMP DP  RH WIND       PRES   REMARKS
IRON MOUNTAIN  CLOUDY    66  53  63 N7        30.14S
MARINETTE      CLOUDY   N/A N/A N/A N5        30.12F
$$

WIZ017-030-035>037-045-010100-
CENTRAL WISCONSIN

CITY           SKY/WX    TMP DP  RH WIND       PRES   REMARKS
MEDFORD        NOT AVBL
WAUSAU         CLEAR     70  53  54 VRB6      30.14R
MOSINEE        PTCLDY    70  52  52 N10       30.15S
MARSHFIELD     CLEAR     72  51  47 N8        30.14S
WISC RAPIDS    CLEAR     73  53  49 N7        30.14F
STEVENS POINT  NOT AVBL
WAUPACA        NOT AVBL
SHAWANO        NOT AVBL
CLINTONVILLE   PTCLDY    70  52  52 N3        30.11F
WAUTOMA        CLEAR     72  58  61 N3        30.11F
$$

WIZ038-039-048-051-010100-
FOX VALLEY

CITY           SKY/WX    TMP DP  RH WIND       PRES   REMARKS
NWS GREEN BAY  MOCLDY    69  59  70 NE7       30.11S
APPLETON       PTCLDY    70  50  49 N8        30.10F
OSHKOSH        CLEAR     72  55  55 NE5       30.10F
FOND DU LAC    PTCLDY    72  56  57 NE8       30.11S
$$

WIZ022-050-052-010100-
EAST CENTRAL WISCONSIN

CITY           SKY/WX    TMP DP  RH WIND       PRES   REMARKS
EPHRAIM        NOT AVBL
WASHINGTON ISL NOT AVBL
STURGEON BAY   CLOUDY    67  56  67 NE6       30.12S
MANITOWOC      NOT AVBL
SHEBOYGAN      CLEAR     67  55  65 NE3       30.11S
$$

LMZ563-521-522-541>543-010100-
LAKESHORE

STATION/POSITION TIME  TEMP    WIND        PRES    VSBY  WAVE
                       AIR SEA DIR/SP/G                  HT/PER
                 (UTC) (F)     (DEG/KT/KT) (MB)    (MI)  (FT/S)
SHEBOYGAN LKSHOR 2300   67      10/  4/  4 1019.0S
KEWAUNEE LKSHORE 2300                      1019.1
NORTHPORT PIER   2300   70     340/ 13/ 16 1019.3S
N MID LAKE BUOY  2250   69 71  320/ 14/ 16 1018.4S         2/ 4
S GREEN BAY BUOY 2300   71 73   60/ 14/ 16 1019.2R
CHAMBERS ISLAND  2300   70     340/ 11/ 14 1019.6R
MENOMINEE LKSHOR 2300                      1019.0
$$




USA.gov is the U.S. government's official web portal to all federal, state and local government web resources and services.